[[{"header":{"parameterUnit":"m.s-1","parameterCategory":1,"la1":30.2991,"la2":30.254,"lo1":-89.0895,"lo2":-89.0444,"dy":0.0017,"dx":0.0017,"nx":28,"ny":28,"refTime":"2023-08-24T21:00:00:Z","depth":0,"parameterNumber":2,"parameterNumberName":"U-component_of_WINDS"},"data":[0,0,0,0,0,0,0,0,0,0,0,0,0,0,0,0,0,0,0,0,0,0,0,0,0,0,0,0,0,0,0,0,0,0,0,0,0,0,0,0,0,0,0,0,0,0,0,0,0,0,0,0,0,0,0,0,0,0,-1.241,-1.2408,0,-1.2241,-1.2239,-1.2237,-1.2143,-1.2143,-1.2143,-1.2143,-1.1967,-1.1962,-1.1958,0,0,0,0,0,0,0,0,0,0,0,0,0,-1.265,-1.2646,-1.241,-1.2408,-1.2406,-1.2241,-1.2239,-1.2236,-1.2144,-1.2143,-1.2143,-1.2143,-1.1968,-1.1963,-1.1957,0,0,0,0,0,0,0,0,0,0,0,0,0,-1.252,-1.2645,-1.241,-1.234,-1.2332,-1.2242,-1.2239,-1.2236,-1.2144,-1.2143,-1.2143,-1.2142,-1.197,-1.1963,-1.1957,-1.1923,0,0,-1.1936,-1.1933,0,0,0,0,0,0,0,0,-1.2527,-1.2511,-1.2352,-1.2344,-1.2335,-1.2213,-1.2259,-1.2131,-1.2144,-1.2215,-1.2143,-1.2142,-1.2049,-1.2035,-1.2004,-1.1915,-1.1907,-1.1936,-1.1932,-1.1929,-1.1927,0,0,0,0,0,0,0,-1.2537,-1.2518,-1.2343,-1.235,-1.2339,-1.2316,-1.2297,-1.2234,-1.2136,-1.2209,-1.2201,-1.2183,-1.2044,-1.2011,-1.2,-1.1905,-1.1936,-1.193,-1.1926,-1.1923,-1.178,-1.178,0,0,0,0,0,0,-1.2557,-1.2526,-1.2348,-1.2338,-1.2432,-1.2312,-1.229,-1.2252,-1.2136,-1.2118,-1.2183,-1.2179,-1.2023,-1.2007,-1.1993,-1.1946,-1.1929,-1.1922,-1.1919,-1.1779,-1.178,-1.178,0,0,0,0,0,0,-1.2563,-1.2542,-1.2355,-1.243,-1.2404,-1.2308,-1.2266,-1.2249,-1.2216,-1.2117,-1.2099,-1.2168,-1.2022,-1.2002,-1.1941,-1.1939,-1.1919,-1.1913,-1.1779,-1.178,-1.178,-1.1853,0,0,0,0,0,0,-1.257,-1.2545,-1.2531,-1.243,-1.2401,-1.2307,-1.2266,-1.2246,-1.2206,-1.2198,-1.2098,-1.2081,-1.202,-1.1952,-1.1935,-1.193,-1.1908,-1.1779,-1.1779,-1.178,-1.1851,-1.1856,-1.1861,0,0,0,0,0,-1.2579,-1.2558,-1.2531,-1.251,-1.2382,-1.2307,-1.229,-1.2221,-1.2206,-1.2191,-1.2128,-1.2084,-1.1942,-1.1947,-1.1926,-1.1919,-1.1779,-1.1779,-1.178,-1.1848,-1.1855,-1.1861,0,0,0,0,0,0,-1.266,-1.2543,-1.2512,-1.2458,-1.2394,-1.2292,-1.2271,-1.223,-1.2168,-1.2164,-1.208,-1.2058,-1.2005,-1.1956,-1.1963,-1.1881,-1.1856,-1.1852,-1.1915,-1.1921,-1.1926,-1.1938,-1.1903,0,0,0,0,0,-1.2672,-1.2622,-1.2522,-1.2484,-1.2453,-1.2368,-1.2333,-1.2286,-1.2215,-1.2187,-1.2118,-1.2051,-1.1991,-1.1953,-1.1892,-1.1843,-1.182,-1.1828,-1.1834,-1.1838,-1.1836,-1.1807,-1.181,-1.1781,-1.1781,-1.1781,0,0,-1.2695,-1.2625,-1.2598,-1.2498,-1.2442,-1.2392,-1.2345,-1.2293,-1.2255,-1.2178,-1.2117,-1.2065,-1.1984,-1.1929,-1.1902,-1.1886,-1.1839,-1.1839,-1.1843,-1.1838,-1.1808,-1.1811,-1.1813,-1.1782,-1.1782,-1.1782,0,0,-1.2711,-1.2654,-1.2616,-1.2562,-1.2478,-1.2422,-1.2414,-1.2318,-1.2281,-1.2219,-1.216,-1.2113,-1.2011,-1.1956,-1.1915,-1.1913,-1.1871,-1.1895,-1.1921,-1.1895,-1.1897,-1.1898,-1.1898,-1.1899,-1.1893,-1.1894,-1.1894,0,-1.275,-1.2673,-1.2601,-1.2553,-1.2511,-1.2441,-1.2402,-1.2352,-1.2253,-1.2226,-1.2211,-1.2083,-1.2023,-1.1955,-1.1955,-1.1923,-1.1911,-1.1906,-1.1902,-1.1903,-1.1904,-1.1902,-1.1903,-1.1897,-1.1897,-1.1896,-1.1896,0,-1.2725,-1.2672,-1.2652,-1.256,-1.2515,-1.2472,-1.2394,-1.2357,-1.2314,-1.226,-1.2198,-1.2124,-1.2048,-1.2028,-1.1985,-1.1954,-1.1947,-1.1919,-1.1892,-1.1911,-1.1909,-1.1908,-1.1902,-1.1901,-1.19,-1.1899,0,0,-1.2787,-1.2657,-1.2651,-1.2609,-1.2513,-1.247,-1.2424,-1.2351,-1.2321,-1.2256,-1.2215,-1.2131,-1.2105,-1.2058,-1.2008,-1.1985,-1.1989,-1.1958,-1.1955,-1.1967,-1.1951,-1.1974,-1.1974,-1.196,-1.196,-1.196,-1.1958,0,-1.279,-1.2705,-1.264,-1.2579,-1.2529,-1.2463,-1.2423,-1.2359,-1.2308,-1.2257,-1.22,-1.2142,-1.2111,-1.2082,-1.2056,-1.1994,-1.1984,-1.1993,-1.1921,-1.192,-1.1944,-1.1973,-1.1996,-1.1998,-1.1956,-1.1956,-1.1956,0,-1.2781,-1.272,-1.2655,-1.2566,-1.2542,-1.2508,-1.2436,-1.2389,-1.2316,-1.228,-1.2229,-1.2178,-1.2126,-1.2105,-1.2032,-1.204,-1.2007,-1.1972,-1.197,-1.1961,-1.1939,-1.1964,-1.1997,-1.1998,-1.1954,-1.1954,-1.1954,0,-1.2834,-1.2735,-1.2683,-1.2649,-1.2543,-1.252,-1.2475,-1.2402,-1.2362,-1.2299,-1.2273,-1.2205,-1.2167,-1.2115,-1.2047,-1.2038,-1.1982,-1.1955,-1.1951,-1.1953,-1.1941,-1.1943,-1.197,-1.192,-1.192,-1.192,-1.192,0,-1.2844,-1.2807,-1.2705,-1.2674,-1.263,-1.2556,-1.2515,-1.2464,-1.24,-1.2357,-1.2294,-1.2255,-1.2168,-1.2118,-1.2064,-1.2013,-1.1996,-1.1965,-1.1952,-1.1971,-1.1975,-1.1948,-1.1946,-1.192,-1.192,-1.192,-1.192,0,-1.2895,-1.2825,-1.2765,-1.267,-1.2646,-1.2618,-1.2536,-1.2503,-1.2449,-1.2395,-1.2378,-1.2293,-1.2231,-1.2158,-1.2072,-1.2036,-1.199,-1.1969,-1.2015,-1.2007,-1.2007,-1.2008,-1.2017,-1.2015,-1.1968,-1.1968,-1.1969,0,-1.2906,-1.2876,-1.2779,-1.2746,-1.2703,-1.2651,-1.2611,-1.2537,-1.2498,-1.2414,-1.2391,-1.2325,-1.2268,-1.2172,-1.2102,-1.2036,-1.2014,-1.2021,-1.2003,-1.2024,-1.2014,-1.2017,-1.2014,-1.2026,-1.2027,-1.2028,-1.2028,0,-1.2933,-1.2901,-1.2846,-1.278,-1.2734,-1.2678,-1.2619,-1.2596,-1.251,-1.2469,-1.2406,-1.2363,-1.2276,-1.2211,-1.2137,-1.2089,-1.2045,-1.2035,-1.2031,-1.205,-1.2078,-1.2064,-1.2028,-1.2035,-1.2034,-1.2034,-1.2033,-1.2033,-1.2964,-1.2935,-1.2863,-1.2804,-1.2753,-1.27,-1.2664,-1.2606,-1.2553,-1.2477,-1.2437,-1.2375,-1.2303,-1.2199,-1.2154,-1.2104,-1.2088,-1.2082,-1.208,-1.208,-1.2086,-1.2087,-1.209,-1.209,-1.2089,-1.2089,-1.2089,0,-1.2988,-1.2939,-1.2886,-1.2807,-1.2761,-1.2725,-1.2658,-1.2622,-1.2569,-1.2506,-1.2452,-1.2381,-1.2318,-1.2244,-1.2176,-1.2151,-1.2129,-1.2136,-1.2137,-1.2127,-1.2103,-1.2114,-1.2155,-1.2155,-1.2155,-1.2155,-1.2155,-1.2155,-1.2996,-1.2945,-1.2905,-1.2828,-1.2778,-1.2718,-1.2683,-1.2634,-1.2584,-1.2508,-1.2456,-1.2408,-1.2341,-1.2268,-1.221,-1.2189,-1.2167,-1.2181,-1.2154,-1.2134,-1.2128,-1.2123,-1.2133,-1.2176,-1.2176,-1.2182,-1.2182,-1.2182]},{"header":{"parameterUnit":"m.s-1","parameterCategory":1,"la1":30.2991,"la2":30.254,"lo1":-89.0895,"lo2":-89.0444,"dy":0.0017,"dx":0.0017,"nx":28,"ny":28,"refTime":"2023-08-24T21:00:00:Z","depth":0,"parameterNumber":3,"parameterNumberName":"V-component_of_WINDS"},"data":[0,0,0,0,0,0,0,0,0,0,0,0,0,0,0,0,0,0,0,0,0,0,0,0,0,0,0,0,0,0,0,0,0,0,0,0,0,0,0,0,0,0,0,0,0,0,0,0,0,0,0,0,0,0,0,0,0,0,1.4594,1.4593,0,1.4552,1.4552,1.4551,1.4558,1.4559,1.456,1.456,1.4514,1.4512,1.451,0,0,0,0,0,0,0,0,0,0,0,0,0,1.4674,1.4673,1.4594,1.4593,1.4593,1.4552,1.4552,1.4551,1.4558,1.4559,1.456,1.4561,1.4515,1.4512,1.451,0,0,0,0,0,0,0,0,0,0,0,0,0,1.4637,1.4672,1.4594,1.4591,1.4591,1.4552,1.4552,1.4551,1.4558,1.4559,1.456,1.4561,1.4515,1.4513,1.451,1.447,0,0,1.4501,1.45,0,0,0,0,0,0,0,0,1.4639,1.4634,1.4592,1.4591,1.4591,1.4562,1.4563,1.4524,1.4558,1.457,1.456,1.4562,1.4529,1.4525,1.4515,1.4468,1.4466,1.4501,1.4499,1.4498,1.4497,0,0,0,0,0,0,0,1.4641,1.4635,1.4577,1.4592,1.4591,1.4591,1.4587,1.4556,1.4544,1.4569,1.457,1.4565,1.4528,1.4517,1.4514,1.4466,1.4501,1.4498,1.4497,1.4496,1.4381,1.438,0,0,0,0,0,0,1.4645,1.4638,1.4579,1.4576,1.4618,1.4588,1.4584,1.457,1.4544,1.4541,1.4564,1.4565,1.4522,1.4517,1.4512,1.4461,1.4498,1.4495,1.4494,1.4383,1.4381,1.438,0,0,0,0,0,0,1.4647,1.464,1.458,1.4607,1.4599,1.4586,1.457,1.4568,1.4557,1.454,1.4538,1.4555,1.4522,1.4516,1.448,1.446,1.4494,1.4491,1.4384,1.4382,1.438,1.4362,0,0,0,0,0,0,1.4649,1.4641,1.4627,1.4607,1.4598,1.455,1.4569,1.4567,1.4553,1.4554,1.4531,1.4528,1.4523,1.4484,1.4477,1.4457,1.4489,1.4386,1.4383,1.4381,1.4364,1.436,1.4356,0,0,0,0,0,1.4652,1.4623,1.4626,1.4619,1.458,1.4549,1.4544,1.454,1.4551,1.4536,1.4525,1.4529,1.4464,1.4481,1.4473,1.4451,1.4387,1.4384,1.4381,1.4366,1.436,1.4356,0,0,0,0,0,0,1.464,1.462,1.4623,1.4587,1.457,1.4551,1.4531,1.4534,1.4512,1.4514,1.4509,1.4503,1.4466,1.4456,1.4474,1.441,1.4427,1.4422,1.4418,1.4413,1.4408,1.441,1.4487,0,0,0,0,0,1.4633,1.4611,1.4595,1.4564,1.4555,1.4545,1.4531,1.4529,1.4511,1.4503,1.4489,1.447,1.4445,1.4429,1.4405,1.4364,1.4357,1.4344,1.434,1.4337,1.4332,1.4306,1.4299,1.437,1.437,1.437,0,0,1.4618,1.4605,1.4591,1.4561,1.4548,1.4523,1.4539,1.4513,1.4493,1.4499,1.4464,1.4453,1.4431,1.4391,1.4373,1.4381,1.4311,1.4333,1.433,1.4327,1.4302,1.4296,1.429,1.4368,1.4368,1.4369,0,0,1.4578,1.4567,1.4539,1.4525,1.4505,1.4498,1.4492,1.4472,1.4465,1.443,1.4433,1.441,1.4368,1.4351,1.4337,1.429,1.4291,1.4282,1.4258,1.4233,1.4228,1.4223,1.4203,1.4196,1.4278,1.4278,1.4278,0,1.4562,1.4526,1.4524,1.4497,1.4483,1.4488,1.4458,1.4444,1.4417,1.4405,1.4415,1.4361,1.4347,1.4302,1.429,1.428,1.427,1.4283,1.4229,1.4224,1.4219,1.42,1.4193,1.4277,1.4277,1.4277,1.4277,0,1.4506,1.4481,1.4461,1.4434,1.4418,1.439,1.4381,1.4365,1.4364,1.4355,1.4318,1.4302,1.4273,1.4263,1.4262,1.4217,1.4222,1.4231,1.4247,1.4211,1.4193,1.4186,1.4275,1.4275,1.4276,1.4276,0,0,1.4456,1.4429,1.4421,1.4408,1.4386,1.4365,1.4337,1.431,1.4294,1.4275,1.4249,1.4213,1.422,1.4204,1.4201,1.418,1.4139,1.419,1.4189,1.4179,1.4085,1.4077,1.4069,1.4142,1.414,1.4139,1.4086,0,1.4412,1.4362,1.4358,1.4312,1.4287,1.4292,1.4266,1.4248,1.4239,1.4216,1.4206,1.4179,1.4192,1.4182,1.4161,1.4149,1.412,1.4153,1.4114,1.4113,1.4117,1.406,1.4051,1.4002,1.4079,1.4078,1.4077,0,1.4353,1.4332,1.4284,1.4263,1.4253,1.423,1.4204,1.4182,1.4162,1.4157,1.4138,1.4138,1.4106,1.4126,1.408,1.4102,1.4086,1.4078,1.4076,1.4069,1.4091,1.4049,1.3986,1.3978,1.4067,1.4068,1.4068,0,1.4317,1.4278,1.4243,1.4232,1.4208,1.4191,1.418,1.4161,1.4144,1.4121,1.411,1.4084,1.4068,1.4047,1.4039,1.4054,1.3992,1.4012,1.3984,1.3984,1.3969,1.3969,1.3899,1.3964,1.3964,1.3964,1.3964,0,1.4267,1.4236,1.4226,1.4204,1.4169,1.4166,1.4131,1.412,1.4103,1.4077,1.408,1.4056,1.4048,1.4022,1.4015,1.3976,1.397,1.3963,1.3961,1.3961,1.3962,1.3948,1.395,1.3962,1.3962,1.3963,1.3963,0,1.422,1.4213,1.4174,1.4155,1.4149,1.4124,1.4106,1.4084,1.4076,1.4043,1.4036,1.4022,1.3991,1.3982,1.3945,1.394,1.3893,1.3896,1.39,1.3899,1.3871,1.3873,1.3788,1.3775,1.3851,1.385,1.385,0,1.4186,1.4163,1.4141,1.4124,1.4113,1.4087,1.407,1.4065,1.4047,1.4021,1.4001,1.3971,1.3946,1.3896,1.3882,1.3853,1.3853,1.3825,1.3848,1.3848,1.3848,1.3849,1.3845,1.382,1.3819,1.3818,1.3818,0,1.4127,1.4124,1.41,1.4074,1.4054,1.4034,1.4014,1.4,1.3992,1.3971,1.394,1.3921,1.3883,1.3852,1.3822,1.3809,1.381,1.3811,1.3803,1.3801,1.3803,1.3798,1.3885,1.3812,1.3813,1.3813,1.3814,1.3814,1.4083,1.4061,1.4042,1.4015,1.3999,1.398,1.3958,1.3947,1.3921,1.389,1.3889,1.3855,1.3833,1.3793,1.3778,1.375,1.3757,1.3746,1.3742,1.3739,1.3735,1.381,1.3745,1.3745,1.3745,1.3745,1.3745,0,1.4021,1.4008,1.3984,1.3955,1.3933,1.394,1.3917,1.3898,1.3868,1.3848,1.3824,1.3786,1.3756,1.374,1.3709,1.3689,1.3689,1.368,1.368,1.3676,1.3731,1.374,1.3681,1.3681,1.3681,1.3681,1.3681,1.3681,1.3985,1.3948,1.3943,1.3897,1.3884,1.3851,1.3838,1.3819,1.3803,1.3762,1.3737,1.3727,1.3707,1.3675,1.3646,1.3642,1.3629,1.3619,1.3615,1.3666,1.3673,1.3679,1.3687,1.3618,1.3617,1.3562,1.3562,1.3561]}]]